EA5DFV Weather Reports


Display with metric or nautical units.
time (UTC)temp
F
wind
direction
speed
MPH
gust
MPH
rain 1hr
in
rain 24hr
in
rain mn
in
humidity
%
barometer
mb
20260507133330 67 18 3.0 7.0 0.63 0.63 0.13 83 1010.4
20260507132827 66 16 1.0 7.0 0.63 0.63 0.13 83 1010.5
20260507132340 66 31 3.0 7.0 0.63 0.63 0.13 83 1010.6
20260507131831 66 5 3.0 7.0 0.63 0.63 0.13 83 1010.8
20260507131321 65 65 1.0 3.0 0.63 0.63 0.13 82 1010.8
20260507130833 65 65 1.0 4.0 0.63 0.63 0.13 81 1010.9
20260507130328 66 66 1.0 7.0 0.63 0.63 0.13 80 1011.1
20260507125842 67 60 1.0 7.0 0.55 0.55 0.11 79 1011.1
20260507125332 68 81 2.0 8.0 0.16 0.16 0.03 78 1011.2
20260507124823 68 11 3.0 10.0 0.00 0.00 0.00 76 1011.0
20260507124333 69 23 4.0 9.0 0.00 0.00 0.00 76 1011.0
20260507123824 69 51 4.0 9.0 0.00 0.00 0.00 76 1011.1
20260507123333 69 11 3.0 9.0 0.00 0.00 0.00 74 1010.9
20260507122827 69 55 2.0 12.0 0.00 0.00 0.00 74 1011.0
20260507122325 69 13 5.0 12.0 0.00 0.00 0.00 74 1011.2
20260507121835 69 71 2.0 8.0 0.00 0.00 0.00 74 1011.1
20260507121329 69 12 1.0 7.0 0.00 0.00 0.00 74 1011.2
20260507120842 69 5 3.0 11.0 0.00 0.00 0.00 73 1011.2
20260507120334 69 13 3.0 11.0 0.00 0.00 0.00 73 1011.2
20260507115841 69 9 3.0 9.0 0.00 0.00 0.00 73 1011.3
20260507115335 70 5 4.0 9.0 0.00 0.00 0.00 72 1011.4
20260507114828 70 355 2.0 9.0 0.00 0.00 0.00 73 1011.5
20260507114339 69 12 2.0 8.0 0.00 0.00 0.00 74 1011.5
20260507113834 69 13 4.0 10.0 0.00 0.00 0.00 74 1011.4
20260507113344 69 13 4.0 10.0 0.00 0.00 0.00 74 1011.6
20260507112835 69 18 3.0 7.0 0.00 0.00 0.00 74 1011.6
20260507112331 69 18 1.0 7.0 0.00 0.00 0.00 74 1011.6
20260507111842 69 15 4.0 7.0 0.00 0.00 0.00 73 1011.6
20260507111332 69 13 2.0 6.0 0.00 0.00 0.00 74 1011.7
20260507110843 69 13 1.0 5.0 0.00 0.00 0.00 75 1011.8
20260507110332 69 15 3.0 5.0 0.00 0.00 0.00 75 1011.8
20260507105827 69 15 0.0 5.0 0.00 0.00 0.00 75 1011.7
20260507105320 68 15 1.0 4.0 0.00 0.00 0.00 75 1011.8
20260507104834 68 15 1.0 4.0 0.00 0.00 0.00 76 1011.9
20260507104328 68 15 0.0 5.0 0.00 0.00 0.00 76 1011.8
20260507103838 67 15 0.0 4.0 0.00 0.00 0.00 77 1011.8
20260507103328 67 15 0.0 6.0 0.00 0.00 0.00 77 1012.0
20260507102838 67 15 0.0 6.0 0.00 0.00 0.00 77 1012.0
20260507102329 67 15 1.0 5.0 0.00 0.00 0.00 77 1012.0
20260507101846 67 15 3.0 6.0 0.00 0.00 0.00 77 1011.9
20260507101337 67 16 3.0 6.0 0.00 0.00 0.00 77 1012.0
20260507100830 67 17 1.0 6.0 0.00 0.00 0.00 77 1011.9
20260507100335 67 18 1.0 6.0 0.00 0.00 0.00 77 1012.0
20260507095832 67 18 2.0 6.0 0.00 0.00 0.00 77 1012.1
20260507095342 66 18 1.0 4.0 0.00 0.00 0.00 77 1012.1
20260507094833 66 18 1.0 4.0 0.00 0.00 0.00 77 1012.2
20260507094343 66 18 0.0 5.0 0.00 0.00 0.00 78 1012.1
20260507093838 66 18 1.0 6.0 0.00 0.00 0.00 77 1012.2
20260507093328 66 21 1.0 5.0 0.00 0.00 0.00 76 1012.2
20260507092838 66 21 1.0 7.0 0.00 0.00 0.00 76 1012.2
20260507092329 66 21 2.0 7.0 0.00 0.00 0.00 75 1012.2
20260507091842 67 22 2.0 7.0 0.00 0.00 0.00 75 1012.2
20260507091333 67 30 0.0 4.0 0.00 0.00 0.00 75 1012.1
20260507090823 67 30 1.0 4.0 0.00 0.00 0.00 75 1012.1
20260507090333 67 30 1.0 4.0 0.00 0.00 0.00 76 1012.1
20260507085827 67 30 1.0 3.0 0.00 0.00 0.00 76 1012.1
20260507085324 67 30 0.0 4.0 0.00 0.00 0.00 76 1012.3
20260507084834 67 30 0.0 6.0 0.00 0.00 0.00 75 1012.2
20260507084325 67 30 3.0 5.0 0.00 0.00 0.00 75 1012.2
20260507083835 67 30 2.0 5.0 0.00 0.00 0.00 76 1012.2
20260507083329 66 34 0.0 7.0 0.00 0.00 0.00 75 1012.1
20260507082825 66 34 2.0 7.0 0.00 0.00 0.00 76 1012.1
20260507082336 66 37 2.0 4.0 0.00 0.00 0.00 76 1012.0
20260507081831 66 37 0.0 5.0 0.00 0.00 0.00 76 1011.9
20260507081321 66 39 1.0 4.0 0.00 0.00 0.00 77 1011.9
20260507080835 66 42 1.0 5.0 0.00 0.00 0.00 77 1011.9
20260507080328 65 42 0.0 5.0 0.00 0.00 0.00 78 1011.9
20260507075839 65 43 1.0 6.0 0.00 0.00 0.00 77 1011.9
20260507075329 65 46 1.0 6.0 0.00 0.00 0.00 77 1012.0
20260507074823 65 57 2.0 4.0 0.00 0.00 0.00 77 1011.9
20260507074336 65 60 2.0 4.0 0.00 0.00 0.00 78 1011.9
20260507073830 65 67 0.0 4.0 0.00 0.00 0.00 78 1011.7
20260507073326 64 67 1.0 4.0 0.00 0.00 0.00 78 1011.7
20260507072820 64 69 1.0 5.0 0.00 0.00 0.00 78 1011.6
20260507072331 63 69 0.0 5.0 0.00 0.00 0.00 79 1011.7
20260507071827 63 109 0.0 3.0 0.00 0.00 0.00 79 1011.7
20260507071338 63 109 0.0 4.0 0.00 0.00 0.00 80 1011.7
20260507070828 62 109 2.0 7.0 0.00 0.00 0.00 80 1011.7
20260507070339 62 109 2.0 7.0 0.00 0.00 0.00 80 1011.7
20260507065832 62 90 1.0 3.0 0.00 0.00 0.00 81 1011.7
20260507065327 61 90 1.0 3.0 0.00 0.00 0.00 81 1011.8
20260507064823 61 90 1.0 5.0 0.00 0.00 0.00 81 1011.7
20260507064334 61 90 2.0 5.0 0.00 0.00 0.00 81 1011.7
20260507063825 61 88 0.0 5.0 0.00 0.00 0.00 81 1011.7
20260507063321 61 88 2.0 5.0 0.00 0.00 0.00 82 1011.7
20260507062832 61 88 0.0 1.0 0.00 0.00 0.00 82 1011.8
20260507062322 61 88 0.0 3.0 0.00 0.00 0.00 81 1011.7
20260507061840 60 88 1.0 3.0 0.00 0.00 0.00 82 1011.7
20260507061330 60 88 1.0 3.0 0.00 0.00 0.00 82 1011.7
20260507060824 60 88 0.0 5.0 0.00 0.00 0.00 82 1011.7
20260507060333 60 88 1.0 5.0 0.00 0.00 0.00 82 1011.7
20260507055827 60 88 1.0 3.0 0.00 0.00 0.00 82 1011.6
20260507055321 60 88 1.0 6.0 0.00 0.00 0.00 83 1011.4
20260507054831 60 88 1.0 6.0 0.00 0.00 0.00 83 1011.4
20260507054325 60 88 1.0 5.0 0.00 0.00 0.00 83 1011.4
20260507053822 59 88 2.0 5.0 0.00 0.00 0.00 83 1011.3
20260507053333 59 88 1.0 6.0 0.00 0.00 0.00 83 1011.3
20260507052826 59 88 2.0 5.0 0.00 0.00 0.00 83 1011.2
20260507052337 59 88 1.0 3.0 0.00 0.00 0.00 83 1011.2
20260507051828 59 88 1.0 3.0 0.00 0.00 0.00 83 1011.1
20260507051338 59 88 1.0 3.0 0.00 0.00 0.00 83 1011.2
20260507050829 59 88 1.0 6.0 0.00 0.00 0.00 84 1011.1
20260507050319 58 88 3.0 6.0 0.00 0.00 0.00 84 1011.0
20260507045837 58 88 1.0 3.0 0.00 0.00 0.00 84 1011.0
20260507045327 58 88 1.0 2.0 0.00 0.00 0.00 84 1010.9
20260507044838 58 88 1.0 2.0 0.00 0.00 0.00 84 1010.9
20260507044328 58 88 1.0 2.0 0.00 0.00 0.00 84 1010.9
20260507043838 58 88 0.0 3.0 0.00 0.00 0.00 84 1010.9
20260507043329 58 88 1.0 5.0 0.00 0.00 0.00 84 1010.9
20260507042822 58 88 0.0 5.0 0.00 0.00 0.00 84 1010.9
20260507042333 58 88 2.0 5.0 0.00 0.00 0.00 84 1010.9
20260507041827 58 88 2.0 3.0 0.00 0.00 0.00 85 1010.9
20260507041318 58 88 1.0 3.0 0.00 0.00 0.00 85 1010.9
20260507040828 58 88 0.0 3.0 0.00 0.00 0.00 84 1010.9
20260507040333 58 88 0.0 3.0 0.00 0.00 0.00 84 1011.0
20260507035823 58 88 0.0 0.0 0.00 0.00 0.00 84 1011.0
20260507035317 58 88 0.0 0.0 0.00 0.00 0.00 84 1011.0
20260507034827 58 88 0.0 0.0 0.00 0.00 0.00 84 1011.1
20260507034318 57 88 0.0 3.0 0.00 0.00 0.00 84 1011.0
20260507033829 57 88 0.0 3.0 0.00 0.00 0.00 84 1011.1
20260507033323 57 88 2.0 3.0 0.00 0.00 0.00 84 1011.0
20260507032833 56 88 0.0 0.0 0.00 0.00 0.00 84 1011.0
20260507032326 56 88 0.0 0.0 0.00 0.00 0.00 85 1011.1
20260507031819 56 88 0.0 0.0 0.00 0.00 0.00 85 1011.1
20260507031330 55 88 0.0 0.0 0.00 0.00 0.00 84 1011.2
20260507030823 55 88 0.0 0.0 0.00 0.00 0.00 84 1011.2
20260507030337 55 88 0.0 0.0 0.00 0.00 0.00 84 1011.4
20260507025823 55 88 0.0 0.0 0.00 0.00 0.00 85 1011.2
20260507025338 55 88 0.0 0.0 0.00 0.00 0.00 85 1011.4
20260507024827 55 88 0.0 0.0 0.00 0.00 0.00 85 1011.4
20260507024318 55 88 0.0 0.0 0.00 0.00 0.00 85 1011.4
20260507023832 55 88 0.0 0.0 0.00 0.00 0.00 85 1011.4
20260507023324 55 88 0.0 0.0 0.00 0.00 0.00 85 1011.3
20260507022834 55 88 0.0 0.0 0.00 0.00 0.00 85 1011.2
20260507022328 55 88 0.0 1.0 0.00 0.00 0.00 85 1011.3
20260507021819 56 88 0.0 1.0 0.00 0.00 0.00 85 1011.3
20260507021336 55 88 0.0 0.0 0.00 0.00 0.00 84 1011.2
20260507020826 55 88 0.0 0.0 0.00 0.00 0.00 85 1011.2
20260507020329 55 88 0.0 0.0 0.00 0.00 0.00 85 1011.2
20260507015826 55 88 0.0 0.0 0.00 0.00 0.00 85 1011.2
20260507015319 55 88 0.0 0.0 0.00 0.00 0.00 85 1011.2
20260507014831 55 88 0.0 0.0 0.00 0.00 0.00 85 1011.2
20260507014321 55 88 0.0 0.0 0.00 0.00 0.00 85 1011.2
20260507013832 55 88 0.0 0.0 0.00 0.00 0.00 85 1011.3
20260507013326 55 88 0.0 0.0 0.00 0.00 0.00 85 1011.3
20260507012820 55 88 0.0 0.0 0.00 0.00 0.00 84 1011.2
20260507012331 55 88 0.0 0.0 0.00 0.00 0.00 84 1011.2
20260507011823 55 88 0.0 0.0 0.00 0.00 0.00 84 1011.2
20260507011317 56 88 0.0 0.0 0.00 0.00 0.00 84 1011.3
20260507010830 56 88 0.0 1.0 0.00 0.00 0.00 84 1011.3
20260507010321 56 88 0.0 1.0 0.00 0.00 0.00 84 1011.3
20260507005832 56 88 0.0 0.0 0.00 0.00 0.00 84 1011.2
20260507005326 56 88 0.0 0.0 0.00 0.00 0.00 84 1011.4
20260507004836 56 88 0.0 0.0 0.00 0.00 0.00 84 1011.3
20260507004327 56 88 0.0 0.0 0.00 0.00 0.00 84 1011.3
20260507003820 56 88 0.0 0.0 0.00 0.00 0.00 84 1011.3
20260507003332 56 88 0.0 0.0 0.00 0.00 0.00 84 1011.3
20260507002822 56 88 0.0 0.0 0.00 0.00 0.00 84 1011.4
20260507002332 56 88 0.0 0.0 0.00 0.00 0.00 84 1011.4
20260507001826 56 88 0.0 0.0 0.00 0.00 0.00 84 1011.6
20260507001326 56 88 0.0 0.0 0.00 0.00 0.00 84 1011.6
20260507000820 56 88 0.0 0.0 0.00 0.00 0.00 84 1011.6
20260507000331 56 88 0.0 0.0 0.00 0.00 0.00 84 1011.7
20260506235821 56 88 0.0 0.0 0.00 0.00 0.00 84 1011.6
20260506235332 56 88 0.0 0.0 0.00 0.00 0.00 84 1011.7
20260506234822 56 88 0.0 0.0 0.00 0.00 0.00 84 1011.7
20260506234332 56 88 0.0 0.0 0.00 0.00 0.00 84 1011.8
20260506233825 56 88 0.0 0.0 0.00 0.00 0.00 84 1011.8
20260506233323 56 88 0.0 0.0 0.00 0.00 0.00 84 1011.8
20260506232834 56 88 0.0 0.0 0.00 0.00 0.00 84 1011.8
20260506232327 56 88 0.0 0.0 0.00 0.00 0.00 84 1011.9
20260506231817 57 88 0.0 0.0 0.00 0.00 0.00 84 1011.9
20260506231330 57 88 0.0 0.0 0.00 0.00 0.00 84 1011.9
20260506230821 57 88 0.0 0.0 0.00 0.00 0.00 84 1011.9
20260506230336 57 88 0.0 0.0 0.00 0.00 0.00 83 1011.9
20260506225827 57 88 0.0 0.0 0.00 0.00 0.00 83 1012.0
20260506225323 57 88 0.0 0.0 0.00 0.00 0.00 83 1012.0
20260506224817 57 88 0.0 0.0 0.00 0.00 0.00 83 1012.0
20260506224330 57 88 0.0 0.0 0.00 0.00 0.00 83 1012.0
20260506223821 57 88 0.0 0.0 0.00 0.00 0.00 83 1012.1
20260506223332 57 88 0.0 0.0 0.00 0.00 0.00 83 1012.1
20260506222822 57 88 0.0 0.0 0.00 0.00 0.00 83 1012.1
20260506222334 57 88 0.0 0.0 0.00 0.00 0.00 82 1012.1
20260506221828 57 88 0.0 0.0 0.00 0.00 0.00 82 1012.0
20260506221326 57 88 0.0 0.0 0.00 0.00 0.00 82 1012.0
20260506220836 58 88 0.0 0.0 0.00 0.00 0.00 82 1012.0
20260506220318 58 88 0.0 3.0 0.00 0.00 0.00 83 1012.1
20260506215834 58 88 0.0 3.0 0.00 0.00 0.00 82 1012.1
20260506215328 58 88 0.0 1.0 0.00 0.00 0.00 82 1012.2
20260506214821 58 88 0.0 0.0 0.00 0.00 0.00 82 1012.2
20260506214331 58 88 0.0 0.0 0.00 0.00 0.00 82 1012.2
20260506213825 58 88 0.0 0.0 0.00 0.00 0.00 82 1012.1
20260506213322 58 88 0.0 0.0 0.00 0.00 0.00 82 1012.1
20260506212833 58 88 0.0 0.0 0.00 0.00 0.00 81 1012.0
20260506212327 58 88 0.0 0.0 0.00 0.00 0.00 81 1012.0
20260506211837 59 88 0.0 2.0 0.00 0.00 0.00 81 1012.0
20260506211328 59 88 1.0 2.0 0.00 0.00 0.00 81 1011.9
20260506210824 59 88 1.0 2.0 0.00 0.00 0.00 80 1011.8
20260506210335 59 88 0.0 1.0 0.00 0.00 0.00 80 1011.9
20260506205826 59 88 0.0 1.0 0.00 0.00 0.00 80 1011.8
20260506205323 59 88 0.0 3.0 0.00 0.00 0.00 80 1011.7
20260506204833 59 88 0.0 3.0 0.00 0.00 0.00 80 1011.7
20260506204323 60 88 1.0 3.0 0.00 0.00 0.00 79 1011.6
20260506203834 60 88 1.0 3.0 0.00 0.00 0.00 79 1011.5
20260506203327 60 88 1.0 2.0 0.00 0.00 0.00 79 1011.3
20260506202838 60 88 0.0 2.0 0.00 0.00 0.00 78 1011.3
20260506202327 60 88 0.0 2.0 0.00 0.00 0.00 78 1011.3
20260506201817 60 88 1.0 2.0 0.00 0.00 0.00 78 1011.3
20260506201332 60 88 0.0 5.0 0.00 0.00 0.00 78 1011.4
20260506200827 60 88 1.0 5.0 0.00 0.00 0.00 78 1011.3
20260506200340 61 88 2.0 6.0 0.00 0.00 0.00 78 1011.2
20260506195830 61 88 2.0 6.0 0.00 0.00 0.00 77 1011.1
20260506195324 61 85 1.0 5.0 0.00 0.00 0.00 77 1011.0
20260506194837 61 84 2.0 5.0 0.00 0.00 0.00 77 1010.9
20260506194328 61 84 1.0 5.0 0.00 0.00 0.00 77 1010.9
20260506193818 61 84 1.0 5.0 0.00 0.00 0.00 77 1010.8
20260506193332 61 84 1.0 5.0 0.00 0.00 0.00 76 1010.9
20260506192827 61 74 1.0 4.0 0.00 0.00 0.00 76 1010.9
20260506192322 61 74 1.0 4.0 0.00 0.00 0.00 76 1010.9
20260506191833 61 72 1.0 3.0 0.00 0.00 0.00 76 1010.8
20260506191326 62 72 1.0 3.0 0.00 0.00 0.00 76 1010.7
20260506190837 62 72 1.0 3.0 0.00 0.00 0.00 75 1010.6
20260506190327 62 72 0.0 3.0 0.00 0.00 0.00 75 1010.8
20260506185838 62 72 0.0 3.0 0.00 0.00 0.00 75 1010.8
20260506185328 62 72 1.0 4.0 0.00 0.00 0.00 75 1010.8
20260506184826 62 72 0.0 3.0 0.00 0.00 0.00 75 1010.8
20260506184336 63 72 0.0 2.0 0.00 0.00 0.00 74 1010.8
20260506183829 63 72 1.0 2.0 0.00 0.00 0.00 74 1010.8
20260506183322 63 72 0.0 2.0 0.00 0.00 0.00 74 1010.8
20260506182833 63 72 0.0 0.0 0.00 0.00 0.00 73 1010.7
20260506182324 64 72 0.0 1.0 0.00 0.00 0.00 73 1010.6
20260506181833 64 72 0.0 1.0 0.00 0.00 0.00 73 1010.5
20260506181327 64 72 0.0 1.0 0.00 0.00 0.00 72 1010.5
20260506180827 64 72 0.0 2.0 0.00 0.00 0.00 72 1010.6
20260506180337 64 72 1.0 2.0 0.00 0.00 0.00 71 1010.6
20260506175828 64 72 0.0 4.0 0.00 0.00 0.00 70 1010.5
20260506175341 64 72 1.0 4.0 0.00 0.00 0.00 70 1010.5
20260506174832 65 72 0.0 1.0 0.00 0.00 0.00 69 1010.5
20260506174342 65 72 0.0 2.0 0.00 0.00 0.00 70 1010.5
20260506173833 65 72 0.0 3.0 0.00 0.00 0.00 69 1010.4
20260506173343 65 72 1.0 3.0 0.00 0.00 0.00 69 1010.5
20260506172838 65 72 0.0 3.0 0.00 0.00 0.00 68 1010.5
20260506172328 66 72 1.0 3.0 0.00 0.00 0.00 67 1010.4
20260506171839 66 72 0.0 3.0 0.00 0.00 0.00 68 1010.4
20260506171332 66 72 1.0 3.0 0.00 0.00 0.00 68 1010.4
20260506170826 66 72 0.0 5.0 0.00 0.00 0.00 68 1010.5
20260506170337 67 73 1.0 5.0 0.00 0.00 0.00 69 1010.4
20260506165827 67 68 1.0 5.0 0.00 0.00 0.00 69 1010.6
20260506165324 67 69 1.0 4.0 0.00 0.00 0.00 70 1010.5
20260506164838 67 69 0.0 5.0 0.00 0.00 0.00 70 1010.5
20260506164329 67 71 1.0 5.0 0.00 0.00 0.00 70 1010.5
20260506163840 67 69 0.0 5.0 0.00 0.00 0.00 69 1010.5
20260506163330 67 68 1.0 6.0 0.00 0.00 0.00 69 1010.5
20260506162823 67 87 1.0 5.0 0.00 0.00 0.00 68 1010.5
20260506162334 68 77 1.0 3.0 0.00 0.00 0.00 68 1010.6
20260506161827 68 77 1.0 3.0 0.00 0.00 0.00 67 1010.5
20260506161338 68 77 1.0 3.0 0.00 0.00 0.00 68 1010.5
20260506160833 68 77 0.0 3.0 0.00 0.00 0.00 67 1010.5
20260506160333 69 78 1.0 4.0 0.00 0.00 0.00 67 1010.5
20260506155827 69 78 1.0 4.0 0.00 0.00 0.00 66 1010.5
20260506155343 69 80 1.0 4.0 0.00 0.00 0.00 66 1010.5
20260506154833 69 81 0.0 4.0 0.00 0.00 0.00 66 1010.4
20260506154327 70 81 1.0 4.0 0.00 0.00 0.00 64 1010.5
20260506153839 70 81 1.0 4.0 0.00 0.00 0.00 64 1010.5
20260506153330 70 66 1.0 5.0 0.00 0.00 0.00 64 1010.5
20260506152830 70 66 2.0 5.0 0.00 0.00 0.00 65 1010.5
20260506152323 69 67 0.0 3.0 0.00 0.00 0.00 66 1010.5
20260506151840 69 67 1.0 3.0 0.00 0.00 0.00 66 1010.5
20260506151333 68 67 1.0 2.0 0.00 0.00 0.00 68 1010.5
20260506150826 67 67 0.0 2.0 0.00 0.00 0.00 68 1010.5
20260506150337 67 67 0.0 2.0 0.00 0.00 0.00 68 1010.6
20260506145827 66 67 0.0 1.0 0.00 0.00 0.00 69 1010.7
20260506145338 66 67 0.0 3.0 0.00 0.00 0.00 69 1010.7
20260506144833 66 66 1.0 3.0 0.00 0.00 0.00 69 1010.7
20260506144326 66 66 1.0 4.0 0.00 0.00 0.00 69 1010.7
20260506143837 66 66 1.0 4.0 0.00 0.00 0.00 69 1010.7
20260506143328 66 67 1.0 4.0 0.00 0.00 0.00 69 1010.8
20260506142824 66 66 1.0 7.0 0.00 0.00 0.00 69 1010.9
20260506142334 66 67 2.0 7.0 0.00 0.00 0.00 69 1011.0
20260506141845 66 67 2.0 3.0 0.00 0.00 0.00 70 1011.0
20260506141335 66 67 0.0 4.0 0.00 0.00 0.00 70 1011.2
20260506140833 66 67 1.0 4.0 0.00 0.00 0.00 70 1011.2
20260506140343 66 67 0.0 4.0 0.00 0.00 0.00 70 1011.1
20260506135833 66 67 1.0 5.0 0.00 0.00 0.00 70 1011.2
20260506135327 66 67 1.0 7.0 0.00 0.00 0.00 71 1011.3
20260506134840 66 67 1.0 5.0 0.00 0.00 0.00 71 1011.3
20260506134331 66 77 1.0 4.0 0.00 0.00 0.00 71 1011.2
20260506133841 66 74 1.0 4.0 0.00 0.00 0.00 71 1011.2